Location: Delmar
(42.6220°N, 73.8326°W)
Time: 05:21:05
(UTC+00:00)

Cosmos 1689 Rocket - Pass Details

Date: 29 October 2020
Orbit: 360 x 374 km, 97.5° (Epoch: 29 November)

Event Time Altitude Azimuth Distance (km) Brightness Sun altitude
Exits shadow 22:53:22 - 16° (NNE) 2,063 5.5 -11.9°
Reaches altitude 10° 22:55:00 10° 21° (NNE) 1,353 4.5 -12.2°
Maximum altitude 22:57:50 56° 101° (E) 435 2.0 -12.8°
Drops below altitude 10° 23:00:39 10° 181° (S) 1,339 4.9 -13.3°
Sets 23:02:34 0° 186° (S) 2,176 6.0 -13.6°
